When you browse on this site, cookies collect data to enhance your experience and personalize the content and advertising you see.
Visit our Privacy Policy to learn more. By continuing to use the site, you agree to this use of cookies and data.
  • In Czech Republic
  • List of Countries
  • For 7 days
  • Water Temperature
  • Satellite Maps
  • Weather Map
  • Weather Widgets
  • user-avatar
    Login

    Hourly Weather Batir

    Today, 22 May, Wednesday

    Time Temperature Precipitation Wind Pressure Humidity
    00:00 +15°C° 0 mm 2 mps 741 mmHg 70%
    01:00 +15°C° 0 mm 2 mps 740 mmHg 70%
    02:00 +14°C° 0 mm 2 mps 740 mmHg 69%
    03:00 +14°C° 0 mm 1 mps 740 mmHg 70%
    04:00 +14°C° 0 mm 1 mps 740 mmHg 70%
    05:00 +13°C° 0 mm 1 mps 740 mmHg 71%
    06:00 +15°C° 0 mm 2 mps 740 mmHg 65%
    07:00 +17°C° 0 mm 2 mps 740 mmHg 59%
    08:00 +19°C° 0 mm 2 mps 741 mmHg 54%
    09:00 +21°C° 0 mm 3 mps 741 mmHg 48%
    10:00 +22°C° 0 mm 3 mps 741 mmHg 43%
    11:00 +25°C° 0 mm 4 mps 741 mmHg 38%
    12:00 +25°C° 0 mm 4 mps 740 mmHg 36%
    13:00 +26°C° 0 mm 4 mps 740 mmHg 34%
    14:00 +26°C° 0 mm 4 mps 740 mmHg 32%
    15:00 +26°C° 0 mm 4 mps 740 mmHg 34%
    16:00 +26°C° 0 mm 3 mps 740 mmHg 35%
    17:00 +25°C° 0 mm 3 mps 740 mmHg 36%
    18:00 +24°C° 0 mm 2 mps 739 mmHg 40%
    19:00 +21°C° 0 mm 2 mps 739 mmHg 44%
    20:00 +20°C° 0 mm 1 mps 739 mmHg 49%
    21:00 +19°C° 0 mm 2 mps 739 mmHg 53%
    22:00 +18°C° 0 mm 2 mps 740 mmHg 58%
    23:00 +17°C° 0 mm 3 mps 740 mmHg 63%

    Tomorrow, 23 May, Thursday

    Time Temperature Precipitation Wind Pressure Humidity
    00:00 +17°C° 0 mm 3 mps 739 mmHg 66%
    01:00 +16°C° 0 mm 3 mps 739 mmHg 69%
    02:00 +14°C° 0 mm 3 mps 739 mmHg 72%
    03:00 +14°C° 0 mm 3 mps 739 mmHg 73%
    04:00 +15°C° 0 mm 2 mps 739 mmHg 74%
    05:00 +14°C° 0 mm 2 mps 739 mmHg 75%
    06:00 +16°C° 0 mm 2 mps 739 mmHg 69%
    07:00 +18°C° 0 mm 2 mps 740 mmHg 63%
    08:00 +20°C° 0 mm 3 mps 740 mmHg 57%
    09:00 +21°C° 0 mm 2 mps 740 mmHg 52%
    10:00 +24°C° 0 mm 2 mps 740 mmHg 47%
    11:00 +25°C° 0 mm 1 mps 740 mmHg 42%
    12:00 +26°C° 0 mm 2 mps 740 mmHg 40%
    13:00 +26°C° 0 mm 3 mps 740 mmHg 38%
    14:00 +27°C° 0 mm 4 mps 739 mmHg 36%
    15:00 +26°C° 0 mm 4 mps 739 mmHg 39%
    16:00 +26°C° 0 mm 4 mps 739 mmHg 42%
    17:00 +25°C° 0 mm 4 mps 739 mmHg 45%
    18:00 +24°C° 0 mm 3 mps 739 mmHg 50%
    19:00 +22°C° 0 mm 3 mps 739 mmHg 54%
    20:00 +20°C° 0 mm 2 mps 739 mmHg 59%
    21:00 +19°C° 0 mm 2 mps 739 mmHg 62%
    22:00 +20°C° 0 mm 1 mps 740 mmHg 64%
    23:00 +19°C° 0 mm 1 mps 740 mmHg 66%

    Day after tomorrow, 24 May, Friday

    Time Temperature Precipitation Wind Pressure Humidity
    00:00 +19°C° 0 mm 1 mps 740 mmHg 69%
    01:00 +16°C° 0 mm 0 mps 740 mmHg 71%
    02:00 +15°C° 0 mm 0 mps 740 mmHg 73%
    03:00 +15°C° 0 mm 0 mps 740 mmHg 74%
    04:00 +15°C° 0 mm 0 mps 740 mmHg 75%
    05:00 +16°C° 0 mm 1 mps 740 mmHg 76%
    06:00 +19°C° 0 mm 1 mps 740 mmHg 71%
    07:00 +20°C° 0 mm 2 mps 740 mmHg 66%
    08:00 +21°C° 0 mm 3 mps 740 mmHg 60%
    09:00 +23°C° 0.7 mm 2 mps 740 mmHg 56%
    10:00 +24°C° 0.7 mm 2 mps 740 mmHg 51%
    11:00 +25°C° 0.7 mm 2 mps 740 mmHg 46%
    12:00 +26°C° 0.2 mm 2 mps 740 mmHg 46%
    13:00 +26°C° 0.2 mm 1 mps 740 mmHg 46%
    14:00 +26°C° 0.2 mm 1 mps 739 mmHg 45%
    15:00 +25°C° 1.1 mm 1 mps 739 mmHg 52%
    16:00 +24°C° 1.1 mm 1 mps 739 mmHg 58%
    17:00 +23°C° 1.1 mm 2 mps 739 mmHg 64%
    18:00 +21°C° 0.2 mm 2 mps 739 mmHg 67%
    19:00 +20°C° 0.2 mm 2 mps 739 mmHg 70%
    20:00 +20°C° 0.2 mm 1 mps 739 mmHg 73%
    21:00 +19°C° 1.2 mm 2 mps 739 mmHg 75%
    22:00 +18°C° 1.2 mm 2 mps 739 mmHg 78%
    23:00 +18°C° 1.2 mm 2 mps 739 mmHg 80%

    25 May, Saturday

    Time Temperature Precipitation Wind Pressure Humidity
    00:00 +17°C° 0.9 mm 2 mps 739 mmHg 83%
    01:00 +17°C° 0.9 mm 2 mps 739 mmHg 85%
    02:00 +16°C° 0.9 mm 2 mps 739 mmHg 87%
    03:00 +16°C° 0.6 mm 2 mps 739 mmHg 89%
    04:00 +16°C° 0.6 mm 3 mps 739 mmHg 91%
    05:00 +16°C° 0.6 mm 3 mps 739 mmHg 93%
    06:00 +15°C° 0.7 mm 4 mps 739 mmHg 89%
    07:00 +16°C° 0.7 mm 5 mps 739 mmHg 86%
    08:00 +17°C° 0.7 mm 6 mps 739 mmHg 83%
    09:00 +17°C° 0.3 mm 6 mps 739 mmHg 79%
    10:00 +19°C° 0.3 mm 5 mps 740 mmHg 75%
    11:00 +20°C° 0.3 mm 5 mps 740 mmHg 71%
    12:00 +21°C° 0.1 mm 5 mps 740 mmHg 66%
    13:00 +22°C° 0.1 mm 5 mps 739 mmHg 61%
    14:00 +23°C° 0.1 mm 5 mps 739 mmHg 56%
    15:00 +23°C° 0.6 mm 5 mps 739 mmHg 58%
    16:00 +22°C° 0.6 mm 6 mps 739 mmHg 60%
    17:00 +22°C° 0.6 mm 6 mps 739 mmHg 62%
    18:00 +21°C° 0.1 mm 5 mps 739 mmHg 68%
    19:00 +19°C° 0.1 mm 4 mps 740 mmHg 74%
    20:00 +18°C° 0.1 mm 3 mps 740 mmHg 81%
    21:00 +17°C° 0 mm 3 mps 740 mmHg 81%
    22:00 +17°C° 0 mm 3 mps 740 mmHg 82%
    23:00 +17°C° 0 mm 3 mps 741 mmHg 83%

    26 May, Sunday

    Time Temperature Precipitation Wind Pressure Humidity
    00:00 +16°C° 0 mm 3 mps 741 mmHg 84%
    01:00 +16°C° 0 mm 3 mps 741 mmHg 85%
    02:00 +15°C° 0 mm 2 mps 741 mmHg 85%
    03:00 +15°C° 0 mm 2 mps 741 mmHg 86%
    04:00 +15°C° 0 mm 2 mps 742 mmHg 87%
    05:00 +14°C° 0 mm 2 mps 742 mmHg 87%
    06:00 +16°C° 0 mm 2 mps 742 mmHg 80%
    07:00 +18°C° 0 mm 2 mps 742 mmHg 72%
    08:00 +20°C° 0 mm 3 mps 743 mmHg 65%
    09:00 +21°C° 0 mm 2 mps 743 mmHg 59%
    10:00 +23°C° 0 mm 2 mps 743 mmHg 54%
    11:00 +24°C° 0 mm 2 mps 743 mmHg 48%
    12:00 +25°C° 0 mm 2 mps 742 mmHg 46%
    13:00 +25°C° 0 mm 3 mps 742 mmHg 44%
    14:00 +26°C° 0 mm 3 mps 742 mmHg 42%
    15:00 +26°C° 0 mm 3 mps 742 mmHg 43%
    16:00 +26°C° 0 mm 3 mps 741 mmHg 43%
    17:00 +26°C° 0 mm 4 mps 741 mmHg 44%
    18:00 +25°C° 0 mm 3 mps 741 mmHg 48%
    19:00 +22°C° 0 mm 3 mps 741 mmHg 53%
    20:00 +21°C° 0 mm 3 mps 741 mmHg 57%
    21:00 +20°C° 0.1 mm 3 mps 741 mmHg 63%
    22:00 +19°C° 0.1 mm 3 mps 741 mmHg 68%
    23:00 +18°C° 0.1 mm 3 mps 741 mmHg 74%

    27 May, Monday

    Time Temperature Precipitation Wind Pressure Humidity
    00:00 +17°C° 0 mm 2 mps 742 mmHg 75%
    01:00 +17°C° 0 mm 2 mps 742 mmHg 76%
    02:00 +16°C° 0 mm 2 mps 742 mmHg 77%
    03:00 +16°C° 0 mm 2 mps 742 mmHg 79%
    04:00 +16°C° 0 mm 2 mps 742 mmHg 81%
    05:00 +16°C° 0 mm 2 mps 743 mmHg 83%
    06:00 +17°C° 0 mm 2 mps 743 mmHg 76%
    07:00 +19°C° 0 mm 2 mps 743 mmHg 69%
    08:00 +21°C° 0 mm 2 mps 744 mmHg 62%
    09:00 +23°C° 0 mm 2 mps 744 mmHg 57%
    10:00 +24°C° 0 mm 2 mps 744 mmHg 53%
    11:00 +25°C° 0 mm 2 mps 744 mmHg 48%
    12:00 +25°C° 0 mm 2 mps 744 mmHg 47%
    13:00 +25°C° 0 mm 1 mps 744 mmHg 46%
    14:00 +25°C° 0 mm 1 mps 744 mmHg 44%
    15:00 +26°C° 0 mm 1 mps 744 mmHg 44%
    16:00 +26°C° 0 mm 1 mps 744 mmHg 44%
    17:00 +26°C° 0 mm 1 mps 744 mmHg 44%
    18:00 +24°C° 0 mm 2 mps 744 mmHg 50%
    19:00 +23°C° 0 mm 2 mps 744 mmHg 56%
    20:00 +20°C° 0 mm 3 mps 744 mmHg 62%
    21:00 +20°C° 0 mm 3 mps 744 mmHg 66%
    22:00 +19°C° 0 mm 3 mps 744 mmHg 70%
    23:00 +18°C° 0 mm 4 mps 745 mmHg 74%
    Show more